942  
ASUS44 KMEG 211710  
RWRMEG  
MEMPHIS CWA HOURLY WEATHER ROUNDUP  
NATIONAL WEATHER SERVICE MEMPHIS TN  
1200 PM CDT THU OCT 21 2021  
   
..WEST TENNESSEE
 
 
 
CITY SKY/WX TMP DP RH WIND PRES REMARKS
 
MEMPHIS INTL PTSUNNY 72 48 42 NW10 30.12S  
NWS MEMPHIS N/A 70 N/A N/A MISG N/A  
JACKSON CLOUDY 70 49 47 W12 30.11R  
COVINGTON CLOUDY 70 52 52 NW7G13 30.10F  
SOMERVILLE CLOUDY 72 59 64 W9 30.10S  
LEXINGTON CLOUDY 72 64 78 W7 30.06F  
DYERSBURG SUNNY 70 46 42 W12 30.11S  
UNION CITY SUNNY 72 46 40 W10G16 30.06F  
PARIS PTSUNNY 70 50 49 W10 30.06F  
 
   
..EASTERN ARKANSAS
 
 
 
CITY SKY/WX TMP DP RH WIND PRES REMARKS
 
JONESBORO SUNNY 70 44 39 W12 30.11F  
WEST MEMPHIS PTSUNNY 73 44 35 N7 30.12S  
BATESVILLE SUNNY 69 43 38 W8 30.14  
NEWPORT SUNNY 70 43 37 W14 30.13F  
WALNUT RIDGE SUNNY 67 46 47 W13G18 30.12S  
BLYTHEVILLE SUNNY 72 44 36 W13G18 30.10S  
SEARCY SUNNY 73 48 41 NW9 30.14F  
STUTTGART SUNNY 74 56 53 NW9 30.15S  
PINE BLUFF PTSUNNY 78 60 53 N10 30.14S  
MONTICELLO SUNNY 80 65 59 W8 30.13F  
 
   
..NORTH MISSISSIPPI
 
 
 
CITY SKY/WX TMP DP RH WIND PRES REMARKS
 
TUPELO CLOUDY 75 70 84 SW6 30.11F  
OXFORD PTSUNNY 70 70 100 VRB6 30.13F  
BATESVILLE PTSUNNY 73 70 88 W5 30.11S  
TUNICA CLOUDY 72 61 68 N9 30.13S  
CLARKSDALE MOSUNNY 79 68 69 VRB5G13 30.12S  
CORINTH CLOUDY 75 66 73 SW12G17 30.09F  
GREENWOOD CLOUDY 75 70 84 SW5 30.13F  
COLUMBUS PTSUNNY 77 70 78 CALM 30.11F  
STARKVILLE PTSUNNY 79 68 69 VRB3 30.11F  
GOLDEN TRIANGL PTSUNNY 79 70 74 VRB6 30.13F  
 
   
..SOUTHEAST MISSOURI
 
 
 
CITY SKY/WX TMP DP RH WIND PRES REMARKS
 
KENNETT SUNNY 70 45 40 NW14G22 30.09F  
MALDEN SUNNY 68 43 40 W14 30.11S  
WEST PLAINS SUNNY 62 43 49 W9G21 30.15F  
POPLAR BLUFF SUNNY 67 44 43 NW10 30.09S  
CAPE GIRARDEAU SUNNY 67 46 47 W15G22 30.07S  
 
   
..NORTHWEST ALABAMA
 
 
 
CITY SKY/WX TMP DP RH WIND PRES REMARKS
 
MUSCLE SHOALS CLOUDY 77 66 68 W9 30.10F  
 
   
..MIDDLE TENNESSEE
 
 
 
CITY SKY/WX TMP DP RH WIND PRES REMARKS
 
NASHVILLE PTSUNNY 75 62 64 SW10 30.06F  
CLARKSVILLE CLOUDY 72 61 68 W12G20 30.04S  
DICKSON CLOUDY 70 64 83 W9G18 30.05F  
COLUMBIA CLOUDY 72 72 100 SW12 30.06F  
LAWRENCEBURG PTSUNNY 72 64 78 SW8G15 30.09F  
LEWISBURG CLOUDY 73 64 73 SW9G17 30.07F  
 
   
..WESTERN KENTUCKY
 
 
 
CITY SKY/WX TMP DP RH WIND PRES REMARKS
 
PADUCAH SUNNY 68 47 46 W12 30.04F  
FORT CAMPBELL PTSUNNY 70 58 64 W17 30.03S  
 
   
..CENTRAL ARKANSAS
 
 
 
CITY SKY/WX TMP DP RH WIND PRES REMARKS
 
LITTLE ROCK MOSUNNY 74 47 38 NW13 30.15F  
 
SKY/WX REPORTED AS FAIR MEANS FEW OR NO CLOUDS BELOW  
12 THOUSAND FEET.  
 
 
 
CLICK HERE TO GO TO PREVIOUS BULLETINS.

The Nexlab TN Page
The Nexlab MS Page
The Nexlab AR Page Main Text Page